"Pseudo-MPEC" for P11JCqb

Created 2023 Sep 19 16:22:21 UT using Find_Orb

Click here for an explanation of pseudo-MPECs

 
 Astrometry: 
     P11JCqb  C2023 09 10mxrIT`2@Vawb1-rj3#)!D)0C@L2(YQ'#PT=NNXK6iYb3FeGcyXasF52
     P11JCqb  C2023 09 10^squ-xvd)*(EYVW*FF=/YdNOelNwSH5L$-He_xOB(WhagyF4=w3[F52
     P11JCqb  C2023 09 10%cGqkD$mZQqAS6Z+@#3QEO?DOSDl*X(/AO[2M_ZajQ\wB=(b@p9eF52
     P11JCqb  C2023 09 10EX/Ne.tIfAstrometryYa+:M3y-tj9Wg[tJC:@redacted;6Y?IhF52
     P11JCqb* C2023 09 15mhPA8Dq#)e+d87.QHP2B/6tFI9Ik`7B'O^%F/1GKP_8kdhW`BgPgF51
     P11JCqb  C2023 09 15y/6ko'gwWKWA1ih7s(-1sLTP2vq=m8p(;r0(IgTKDO7gN`5LMaZ#F51
     P11JCqb  C2023 09 15tVOk#gaZp#RZ+!G9ki=3aEMa[y4BYkpjtaG#'fZ3F?hm3o8VfK=2F51
     P11JCqb  C2023 09 15SXm,Ficlick@k:dfU1\XmHln2o;ES!*Yr2PcP-8AGa4C5[E'a990F51
     P11JCqb KC2023 09 15T8(bm3A?)-oG%yTu!@\W.Zli%t+sgoMZxiM10Gnqp;wpookJ5'(xF51
     P11JCqb 3C2023 09 18;NAuHLnjBuJteQ_OxSGohereox?m0C\kK4ayVfor\\*FXYpRx!7NT14
     P11JCqb 3C2023 09 18TkO#:'B2explanationt,U0wZE^ZUt67$\p^,H\a:d;_9St:eHFAT14
     P11JCqb 3C2023 09 18Yx!X6531%$5atMGw0/kNJPBC)]He*ix\E0rZC)`!s!vFIM02_\H'T14

Station data:
(F51) Pan-STARRS 1, Haleakala  (N20.707234 W156.255910)  US/Hawaii.
   Observers J. Bulger, T. Lowe, A. Schultz, M. Willman. Measurers K.
   Chambers, S. Chastel, T. de Boer, L. Denneau, J. Fairlamb, H. Flewelling,
   M. Huber, C.-C. Lin, E. Magnier, Y. Ramanjooloo, R. Wainscoat, R. Weryk.
   1.8-m Ritchey-Chrétien + CCD.
(F52) Pan-STARRS 2, Haleakala  (N20.707382 W156.255910)  US/Hawaii.
   Observers J. Bulger, T. Dukes, T. Lowe, A. Schultz, M. Willman. Measurers
   K. Chambers, S. Chastel, T. de Boer, L. Denneau, J. Fairlamb, H.
   Flewelling, M. Huber, C.-C. Lin, E. Magnier, Y. Ramanjooloo, R. Wainscoat,
   R. Weryk. 1.8-m Ritchey-Chrétien + CCD.
(T14) Mauna Kea-UH/Tholen NEO Follow-Up (CFHT)  (N19.825252 W155.468876)
   US/Hawaii.  Observer R. Weryk. 3.6-m Canada-France-Hawaii Telescope.

Orbital elements:  P11JCqb
   Perihelion 2023 Sep 19.50615 +/- 0.0523 TT = 12:08:51 (JD 2460207.00615)
Epoch 2023 Sep 18.0 TT = JDT 2460205.5   Earth MOID: 0.3203   Ma: 0.0217
M 359.54272071 +/- 0.015            (J2000 ecliptic)             AutoNEOCP
n   0.30360841 +/- 0.000509         Peri.  320.67639 +/- 0.058
a   2.19243562 +/- 0.00245          Node    37.40532 +/- 0.018
e   0.3983736 +/- 0.000507          Incl.    4.59829 +/- 0.0049
P   3.25                   H 23.45  G  0.15   U  7.7
q 1.31902693 +/- 0.000364    Q 3.06584431 +/- 0.00454
From 12 observations 2023 Sept. 10-18; mean residual 0".13
Residuals in arcseconds: 
230910 F52  .10+  .10-    230915 F51  .07+  .00     230915 F51  .03+  .20+    
230910 F52  .15+  .18-    230915 F51  .07+  .05+    230918 T14  .00   .00     
230910 F52  .37-  .30+    230915 F51  .16-  .14-    230918 T14  .01+  .01+    
230910 F52  .13+  .02-    230915 F51  .01-  .10-    230918 T14  .01-  .01-    

Ephemerides (geocentric):
Date (UTC) HH   RA             Dec           delta  r     elong  mag " sig PA
---- --------  ------------   ------------  ------ ------ -----  --- --------
2023 09 19 16  00 38 02.708   -08 54 55.30  .32268 1.3190 165.1 22.3 .086 117
2023 09 19 17  00 38 02.929   -08 54 23.92  .32266 1.3190 165.1 22.3 .089 117
2023 09 19 18  00 38 03.148   -08 53 52.52  .32264 1.3190 165.1 22.3 .092 117
2023 09 19 19  00 38 03.365   -08 53 21.09  .32262 1.3190 165.1 22.3 .095 116
2023 09 19 20  00 38 03.578   -08 52 49.63  .32260 1.3190 165.2 22.3 .098 116
2023 09 19 21  00 38 03.789   -08 52 18.14  .32259 1.3190 165.2 22.3 .101 116
2023 09 19 22  00 38 03.998   -08 51 46.63  .32257 1.3190 165.2 22.3 .104 115
2023 09 19 23  00 38 04.203   -08 51 15.09  .32255 1.3190 165.3 22.3 .107 115
2023 09 20 00  00 38 04.406   -08 50 43.52  .32253 1.3190 165.3 22.3 .110 115
2023 09 20 01  00 38 04.607   -08 50 11.92  .32252 1.3190 165.3 22.3 .113 115
2023 09 20 02  00 38 04.805   -08 49 40.30  .32250 1.3190 165.3 22.3 .116 115
2023 09 20 03  00 38 05.000   -08 49 08.65  .32248 1.3190 165.4 22.3 .120 114
2023 09 20 04  00 38 05.193   -08 48 36.98  .32247 1.3190 165.4 22.3 .123 114
2023 09 20 05  00 38 05.383   -08 48 05.28  .32245 1.3190 165.4 22.3 .126 114
2023 09 20 06  00 38 05.570   -08 47 33.55  .32243 1.3190 165.4 22.3 .129 114
2023 09 20 07  00 38 05.755   -08 47 01.79  .32242 1.3190 165.5 22.3 .133 114
2023 09 20 08  00 38 05.937   -08 46 30.01  .32240 1.3191 165.5 22.3 .136 113
2023 09 20 09  00 38 06.117   -08 45 58.20  .32239 1.3191 165.5 22.3 .139 113
2023 09 20 10  00 38 06.294   -08 45 26.36  .32237 1.3191 165.6 22.3 .142 113
2023 09 20 11  00 38 06.469   -08 44 54.50  .32236 1.3191 165.6 22.3 .146 113
2023 09 20 12  00 38 06.641   -08 44 22.61  .32234 1.3191 165.6 22.3 .149 113
2023 09 20 13  00 38 06.810   -08 43 50.69  .32233 1.3191 165.6 22.3 .153 113
2023 09 20 14  00 38 06.977   -08 43 18.74  .32232 1.3191 165.7 22.3 .156 113
2023 09 20 15  00 38 07.142   -08 42 46.77  .32230 1.3191 165.7 22.3 .159 112
2023 09 20 16  00 38 07.304   -08 42 14.77  .32229 1.3191 165.7 22.3 .163 112
2023 09 20 17  00 38 07.463   -08 41 42.74  .32227 1.3191 165.7 22.3 .166 112
2023 09 20 18  00 38 07.620   -08 41 10.69  .32226 1.3191 165.8 22.3 .170 112
2023 09 20 19  00 38 07.775   -08 40 38.61  .32225 1.3191 165.8 22.3 .173 112
2023 09 20 20  00 38 07.927   -08 40 06.51  .32223 1.3191 165.8 22.3 .177 112
2023 09 20 21  00 38 08.076   -08 39 34.37  .32222 1.3191 165.8 22.3 .180 112
2023 09 20 22  00 38 08.223   -08 39 02.21  .32221 1.3191 165.9 22.3 .184 112
2023 09 20 23  00 38 08.368   -08 38 30.02  .32220 1.3191 165.9 22.3 .188 112
2023 09 21 00  00 38 08.510   -08 37 57.81  .32218 1.3191 165.9 22.3 .191 112
2023 09 21 01  00 38 08.650   -08 37 25.57  .32217 1.3191 166.0 22.3 .195 111
2023 09 21 02  00 38 08.787   -08 36 53.30  .32216 1.3191 166.0 22.3 .198 111
2023 09 21 03  00 38 08.922   -08 36 21.01  .32215 1.3191 166.0 22.3 .202 111
2023 09 21 04  00 38 09.055   -08 35 48.69  .32214 1.3191 166.0 22.3 .206 111
2023 09 21 05  00 38 09.185   -08 35 16.34  .32213 1.3191 166.1 22.3 .210 111
2023 09 21 06  00 38 09.313   -08 34 43.96  .32212 1.3191 166.1 22.3 .213 111
2023 09 21 07  00 38 09.438   -08 34 11.56  .32211 1.3191 166.1 22.3 .217 111
2023 09 21 08  00 38 09.561   -08 33 39.13  .32210 1.3191 166.1 22.3 .221 111
2023 09 21 09  00 38 09.681   -08 33 06.68  .32208 1.3191 166.2 22.3 .225 111
2023 09 21 10  00 38 09.800   -08 32 34.19  .32207 1.3192 166.2 22.3 .228 111
2023 09 21 11  00 38 09.916   -08 32 01.68  .32207 1.3192 166.2 22.3 .232 111
2023 09 21 12  00 38 10.029   -08 31 29.15  .32206 1.3192 166.2 22.3 .236 111
2023 09 21 13  00 38 10.140   -08 30 56.59  .32205 1.3192 166.3 22.3 .240 111
2023 09 21 14  00 38 10.249   -08 30 24.00  .32204 1.3192 166.3 22.2 .244 111
2023 09 21 15  00 38 10.355   -08 29 51.38  .32203 1.3192 166.3 22.2 .248 111